Temperature
15 15 16 16 15 15 15 15 15 15 15 15 16 16 16 16 16 16 16 16 16 16 16 16 17 17 17 17 17 17 17 17 17 17 17 17 17 17 17 17 17 17 18
14 14 15 15 15 15 15 15 15 15 15 15 15 15 15 16 16 16 16 16 16 16 16 16 16 16 16 16 16 17 17 17 17 17 17 17 17 17 17 17 17 17 18
14 14 15 15 15 15 15 15 15 15 16 15 15 15 15 15 15 15 15 16 16 16 16 16 16 16 16 16 16 16 16 17 17 17 17 16 17 17 17 17 17 17 17
14 14 14 15 15 15 15 15 15 15 15 15 15 15 15 15 15 15 15 15 15 15 16 16 16 16 16 16 16 16 16 16 16 17 16 16 16 17 17 17 17 17 17
14 14 14 14 14 15 15 15 14 14 14 14 14 14 15 15 15 15 15 15 15 15 15 15 16 16 16 16 16 16 16 16 16 16 16 16 16 17 17 17 17 17 17
13 13 14 14 14 14 14 14 14 14 14 14 14 14 14 14 14 15 14 15 15 15 15 15 15 15 15 15 16 16 16 16 16 15 15 15 16 17 17 17 17 17 17
12 13 13 13 14 14 14 14 14 14 14 14 14 14 14 14 14 14 14 14 15 15 15 15 15 15 15 15 15 15 15 15 16 15 15 15 15 16 16 16 17 17 17
12 12 12 12 13 13 13 13 13 13 13 14 14 14 14 14 14 14 14 14 14 14 14 14 15 15 15 15 15 15 15 15 15 15 15 15 15 16 16 16 16 17 17
12 12 12 12 12 12 12 12 12 12 13 13 13 13 13 13 13 14 14 14 14 14 14 14 14 14 15 15 15 15 15 15 15 15 15 15 15 16 16 16 16 16 17
11 11 11 12 12 12 12 12 12 12 12 12 12 13 13 13 13 13 13 13 13 14 14 14 14 14 14 14 15 15 15 15 14 15 15 15 15 15 15 16 16 16 16
11 10 11 11 11 11 11 12 12 12 12 12 12 12 12 12 12 12 13 13 13 13 13 13 13 13 14 14 14 14 14 14 14 14 15 15 15 15 15 15 15 15 16
8 9 9 10 10 10 11 11 11 11 11 12 12 12 12 12 12 12 12 12 13 13 13 13 13 13 13 13 13 14 14 13 13 14 14 15 15 15 15 15 15 15 15
7 8 8 9 9 9 10 10 10 10 11 11 11 11 11 11 12 12 12 12 12 12 12 13 13 13 13 13 13 13 13 13 13 13 14 14 15 15 15 15 15 15 15
7 8 8 8 8 9 9 9 8 8 9 9 10 10 11 11 11 11 11 11 11 12 12 12 12 12 12 12 12 13 13 13 13 13 13 13 14 15 15 14 15 15 15
6 7 7 7 7 7 7 7 7 6 6 6 6 7 8 8 9 10 10 10 11 11 11 11 12 12 12 12 12 12 12 13 13 13 12 13 14 14 15 15 15 15 15
4 5 5 5 5 5 5 5 5 5 4 4 4 4 5 5 6 7 8 9 9 10 10 11 11 11 11 12 12 12 12 12 12 12 12 12 13 13 14 15 15 15 15
2 2 3 3 4 4 4 4 4 3 3 2 2 2 3 3 4 4 5 6 6 8 8 9 10 10 10 11 11 12 12 12 12 12 12 12 12 13 13 14 14 15 15
1 2 2 2 2 2 2 3 2 2 1 1 1 1 2 2 2 3 3 3 4 5 6 6 7 8 9 10 10 11 11 11 12 12 12 12 12 12 12 13 14 14 15
1 1 1 1 1 1 1 1 1 0 -0 -1 -1 -0 1 1 1 2 2 2 3 3 4 4 5 6 7 8 9 10 10 11 11 11 12 12 12 12 12 12 13 13 14
-0 -0 -0 -0 -0 -0 -0 0 -0 -1 -2 -2 -2 -1 -1 -0 0 0 0 1 2 2 3 3 3 4 5 6 7 9 10 10 10 11 11 12 12 12 12 12 12 13 13
-1 -1 -1 -1 -1 -2 -2 -2 -2 -2 -3 -3 -3 -3 -2 -2 -2 -2 -1 -1 -0 1 1 2 2 3 4 4 5 7 9 10 10 10 11 11 11 12 12 12 12 12 12
-3 -3 -3 -3 -3 -4 -4 -4 -4 -5 -4 -4 -4 -4 -3 -3 -3 -4 -3 -3 -3 -2 -1 0 1 1 2 2 3 5 8 10 11 10 10 11 11 11 11 12 12 12 12
-4 -4 -4 -4 -4 -5 -6 -6 -6 -5 -5 -5 -5 -5 -5 -4 -4 -5 -5 -5 -5 -4 -4 -3 -2 -2 -1 1 1 2 6 10 11 11 11 11 11 11 11 11 12 12 12
-5 -5 -5 -5 -5 -6 -6 -7 -7 -8 -7 -7 -7 -7 -6 -6 -5 -6 -6 -6 -6 -5 -5 -5 -4 -4 -3 -2 -0 1 3 5 7 10 10 10 10 11 11 11 11 12 12
-6 -6 -6 -6 -6 -6 -7 -8 -8 -8 -8 -8 -8 -8 -8 -7 -6 -6 -7 -7 -6 -6 -6 -5 -4 -4 -3 -3 -2 -1 1 3 5 6 9 10 10 10 10 11 11 11 11
-6 -7 -7 -7 -7 -7 -8 -8 -9 -9 -9 -9 -9 -9 -9 -8 -8 -7 -7 -7 -7 -6 -6 -5 -4 -4 -3 -3 -2 -2 -1 1 3 5 7 8 9 10 10 10 11 11 11
Wind_Speed
15 13 12 12 12 11 12 12 13 14 13 10 9 10 10 10 9 9 7 4 3 2 2 3 4 4 3 3 2 2 3 3 2 2 4 5 6 7 8 7 6 6 7
17 15 14 14 13 13 13 13 12 13 13 12 11 11 11 11 10 9 9 8 7 5 5 6 7 6 6 6 5 4 3 3 3 2 3 6 7 7 7 7 4 5 6
23 22 23 21 17 14 13 13 13 12 12 12 12 12 12 12 11 10 10 9 9 9 8 9 10 9 8 8 7 6 5 5 5 4 5 7 8 8 7 7 4 5 6
24 26 30 32 28 21 17 15 15 14 13 12 12 12 12 12 12 12 12 11 11 11 10 10 11 10 9 8 8 8 8 7 7 7 8 6 6 8 7 7 7 6 6
23 26 30 34 35 33 30 25 21 19 17 15 13 14 14 13 13 13 13 12 12 12 11 10 10 11 10 9 9 10 10 9 9 10 9 7 7 8 9 9 8 7 7
25 27 32 35 35 35 35 34 32 29 26 22 18 17 17 16 15 15 15 14 12 12 12 10 8 8 9 9 9 10 11 10 11 12 9 9 9 9 11 11 9 8 8
26 29 32 36 35 36 35 34 33 32 32 31 28 24 20 17 16 16 15 14 13 12 12 9 8 6 6 6 7 9 9 9 12 11 9 10 9 8 11 13 12 11 10
27 29 30 33 33 34 36 35 34 33 31 31 31 30 28 23 20 17 15 14 13 12 11 9 8 7 7 6 5 6 6 8 12 12 11 11 8 8 13 15 14 13 12
28 29 29 30 30 29 30 33 32 33 33 31 31 31 28 25 24 21 18 16 15 13 10 10 9 9 8 7 5 3 4 5 10 10 11 10 7 9 11 15 17 16 14
28 28 29 29 29 27 25 28 29 29 31 30 30 31 28 25 24 23 21 21 19 16 13 12 11 11 10 9 7 4 4 6 10 10 9 8 5 8 9 12 17 18 17
25 26 28 29 29 27 24 24 24 24 27 27 27 29 25 22 21 20 22 23 21 19 16 14 13 12 12 11 10 8 8 9 9 8 8 4 4 9 10 11 14 19 19
25 24 26 27 28 27 24 23 21 20 21 21 23 25 23 21 20 21 20 21 22 20 17 14 14 14 14 11 11 11 10 10 9 9 8 6 7 9 10 12 13 17 20
22 23 24 26 27 26 23 21 19 18 18 19 21 23 22 19 20 20 18 18 18 17 15 15 13 12 12 10 9 9 10 9 8 9 9 9 10 11 12 13 14 15 20
21 23 23 26 25 25 23 20 19 18 18 18 19 22 21 17 17 18 16 18 16 14 14 13 11 12 12 13 13 12 11 10 9 9 8 8 11 13 14 15 15 15 18
22 23 22 26 26 25 22 20 19 18 18 19 18 20 21 18 16 17 16 16 17 17 16 13 11 12 12 11 12 12 13 13 13 12 9 10 13 14 15 16 16 17 18
21 22 21 24 25 24 22 21 19 19 19 19 18 20 21 20 18 17 15 15 15 17 18 16 15 13 11 10 12 13 13 14 14 13 13 11 14 16 16 16 17 18 18
20 20 20 22 25 24 22 22 19 19 20 18 18 20 21 21 21 19 15 13 15 18 18 16 16 13 11 11 12 13 13 13 14 14 14 12 12 15 17 17 18 19 20
20 20 20 21 23 24 22 21 20 20 19 18 18 18 21 21 21 19 15 13 17 17 14 12 13 13 13 12 12 11 11 12 15 15 14 13 13 12 14 18 19 19 20
20 21 22 22 23 23 23 21 20 19 19 18 17 17 20 20 21 19 15 15 18 15 12 12 12 13 14 14 13 13 12 12 13 13 15 14 14 13 13 13 18 19 20
20 20 21 21 22 23 20 19 17 17 17 17 18 19 21 20 21 19 15 17 18 13 12 13 15 14 13 14 14 15 14 14 13 13 14 13 13 14 15 14 13 16 21
19 21 22 22 21 19 16 17 17 16 15 15 17 21 22 22 21 19 15 16 16 14 16 16 14 15 13 12 13 14 16 17 17 14 14 14 14 14 14 14 14 13 13
18 19 20 20 20 19 16 16 15 16 14 15 18 20 22 23 23 19 17 14 15 15 17 16 15 12 12 10 8 10 11 14 15 15 15 14 15 13 14 14 14 14 14
18 19 18 20 19 19 20 16 15 14 14 14 16 15 21 24 23 21 20 17 16 14 14 17 16 15 13 13 10 7 8 10 10 12 15 15 15 14 14 14 15 15 16
18 17 18 19 18 19 20 17 19 15 16 18 16 15 21 22 22 22 21 20 17 15 16 16 16 14 14 13 12 11 12 11 10 11 10 11 13 15 15 13 14 15 16
17 16 17 18 18 19 20 19 18 17 16 16 17 19 18 19 20 21 21 20 18 15 17 17 17 16 13 13 13 12 13 13 14 12 14 12 10 11 12 13 12 13 15
16 16 17 18 18 19 19 19 19 20 20 20 20 19 17 16 16 20 22 20 19 16 17 18 17 18 15 15 14 13 13 11 11 11 15 16 15 12 11 10 11 11 12
Wind_Direction
348 359 3 359 360 2 353 353 359 359 359 360 3 358 350 349 347 343 339 331 326 329 321 304 285 279 279 270 242 203 155 137 135 168 187 177 167 163 158 156 175 145 129
351 1 8 359 355 354 350 350 351 349 346 350 353 350 342 339 339 337 332 322 310 304 299 293 286 277 268 260 248 228 200 165 148 147 191 192 179 177 176 179 230 122 146
3 9 10 5 354 348 346 344 342 339 334 333 335 335 331 328 326 326 327 326 318 311 300 289 283 278 268 262 257 243 224 198 179 175 216 205 180 182 190 190 199 163 167
12 18 19 20 17 7 354 344 338 333 326 321 320 320 317 315 314 314 314 315 315 315 306 290 281 275 266 258 252 244 234 215 194 195 221 208 191 170 187 194 202 196 188
22 23 23 25 27 26 21 13 0 347 336 325 317 312 310 306 303 305 304 303 306 305 304 295 282 273 266 256 246 243 239 225 201 216 228 217 211 179 195 199 204 203 202
28 28 28 28 29 28 26 25 22 17 7 353 336 322 315 310 306 304 305 298 299 298 294 292 286 278 267 254 244 240 238 229 216 226 223 220 218 194 205 205 205 203 207
29 28 29 29 29 29 27 25 24 22 20 16 9 357 341 325 317 313 312 305 297 296 287 280 282 283 277 260 246 237 233 227 238 234 225 224 224 206 219 211 206 204 207
29 27 26 25 25 26 26 25 24 23 21 19 16 10 3 353 340 328 318 317 304 295 287 274 272 277 277 269 256 242 222 226 235 234 227 228 218 223 235 222 208 204 206
29 27 24 21 20 20 22 20 20 20 19 18 16 12 6 3 357 348 336 327 320 304 290 281 274 270 270 266 252 223 202 223 248 238 231 231 208 237 249 227 214 206 205
28 24 20 18 16 14 14 16 15 16 15 13 13 10 6 3 360 355 352 346 334 321 305 292 281 277 274 268 254 221 195 230 243 242 238 230 210 252 260 236 222 214 207
24 20 16 14 11 8 7 9 10 12 12 10 8 5 3 1 359 353 352 350 346 337 320 300 285 281 280 261 245 235 227 239 236 242 240 219 239 262 260 251 236 226 215
18 15 13 12 8 5 2 1 2 5 6 8 7 4 359 355 352 350 345 349 348 343 329 311 294 275 264 256 229 219 241 240 245 241 233 189 237 259 261 255 249 234 225
15 14 11 10 7 5 360 358 356 355 357 359 2 2 358 356 352 350 346 345 344 343 340 329 310 284 270 265 264 249 249 254 250 249 237 197 229 248 254 252 251 241 228
14 12 8 7 6 3 359 356 353 352 351 351 354 357 356 352 350 347 342 340 339 339 335 330 317 300 285 271 261 258 254 248 250 251 245 206 233 245 249 250 249 246 234
11 7 5 3 3 359 357 354 352 350 348 345 347 351 353 348 345 342 337 337 335 336 332 326 316 308 296 282 271 263 259 257 255 251 244 218 235 244 246 246 246 244 239
6 3 1 0 359 356 355 352 348 347 345 343 344 345 348 346 341 337 332 332 332 333 329 321 314 306 295 285 277 269 262 258 256 255 253 235 227 240 245 243 242 242 239
2 359 359 356 356 355 353 351 346 344 342 340 341 342 347 345 342 336 330 329 332 329 325 322 317 310 299 289 279 275 270 263 258 254 251 250 244 231 235 239 238 240 238
2 0 358 357 354 353 352 349 346 343 341 339 340 341 345 344 344 337 331 330 333 328 324 322 319 316 306 293 281 274 270 267 263 258 253 245 245 245 234 227 231 235 237
3 359 357 356 354 352 350 347 345 343 342 340 340 342 341 341 342 337 331 332 332 329 327 324 322 318 309 300 286 274 265 263 262 259 253 246 240 238 243 227 219 229 234
0 358 355 353 353 351 350 347 344 343 342 339 339 339 338 337 338 336 332 333 333 329 329 327 322 318 310 300 291 277 266 259 258 257 256 248 239 235 235 240 232 227 226
358 358 355 352 351 351 352 348 344 341 338 337 338 336 335 334 334 333 332 331 331 328 325 323 324 319 316 313 300 282 264 253 250 250 250 249 241 234 231 233 236 237 225
356 356 354 352 349 350 350 343 339 333 333 334 335 333 333 332 330 330 330 329 328 325 321 322 322 316 311 313 309 298 272 257 243 241 242 242 242 236 233 232 233 233 234
356 355 352 351 349 348 347 343 340 336 335 338 337 334 333 330 327 325 325 325 323 322 317 316 314 309 307 304 289 285 280 266 266 243 236 238 237 235 233 233 234 235 233
353 351 350 349 349 349 347 346 343 339 338 335 332 329 329 328 325 323 324 324 322 319 314 311 308 301 297 293 292 272 273 287 280 265 242 233 238 239 235 233 234 233 232
350 350 349 348 349 349 348 347 343 339 336 332 331 329 330 328 327 325 325 324 321 317 312 307 302 295 287 282 279 280 284 280 269 263 260 252 237 236 236 231 230 231 230
350 350 350 348 349 349 348 347 344 340 337 334 334 332 331 328 327 327 326 323 319 315 311 307 301 293 285 276 272 270 267 266 265 259 254 253 253 244 231 227 226 227 228
Height
1574 1571 1567 1565 1563 1561 1560 1559 1558 1556 1555 1554 1553 1552 1551 1550 1549 1548 1547 1546 1545 1544 1543 1543 1542 1542 1541 1541 1540 1540 1540 1539 1539 1540 1540 1540 1540 1540 1540 1540 1541 1542 1542
1577 1573 1570 1567 1565 1563 1561 1560 1558 1556 1555 1554 1553 1551 1550 1549 1548 1547 1546 1545 1544 1543 1542 1542 1541 1541 1540 1540 1539 1539 1539 1538 1539 1539 1539 1539 1539 1539 1540 1540 1541 1542 1542
1576 1573 1570 1568 1566 1564 1562 1560 1558 1557 1555 1554 1552 1551 1549 1548 1547 1546 1545 1544 1543 1541 1540 1540 1540 1539 1538 1538 1538 1537 1537 1538 1538 1539 1539 1539 1539 1539 1539 1540 1541 1541 1542
1577 1573 1570 1567 1565 1564 1562 1561 1559 1557 1555 1554 1552 1550 1549 1547 1546 1545 1544 1542 1541 1540 1538 1538 1537 1537 1536 1535 1535 1536 1536 1536 1537 1537 1538 1539 1539 1538 1539 1539 1540 1541 1541
1578 1574 1571 1568 1566 1563 1561 1559 1558 1556 1555 1553 1552 1550 1548 1547 1545 1544 1542 1541 1539 1538 1537 1536 1535 1534 1533 1533 1533 1533 1534 1534 1535 1535 1537 1537 1538 1538 1538 1539 1539 1540 1541
1579 1575 1572 1569 1566 1564 1561 1559 1556 1554 1553 1551 1550 1548 1547 1545 1544 1542 1540 1539 1537 1535 1534 1533 1532 1532 1531 1531 1531 1531 1531 1532 1532 1534 1535 1535 1536 1536 1537 1538 1538 1539 1540
1579 1576 1572 1569 1566 1564 1562 1559 1557 1554 1552 1549 1547 1545 1544 1543 1541 1540 1538 1536 1535 1533 1532 1531 1530 1529 1529 1528 1528 1528 1528 1529 1529 1531 1531 1532 1533 1534 1535 1536 1537 1538 1539
1581 1577 1574 1570 1567 1565 1562 1560 1558 1555 1553 1550 1547 1544 1542 1540 1538 1537 1535 1534 1532 1531 1530 1529 1527 1527 1526 1526 1525 1525 1525 1525 1526 1528 1528 1529 1530 1532 1533 1534 1535 1536 1537
1583 1579 1575 1572 1569 1566 1563 1560 1558 1555 1552 1549 1547 1544 1541 1539 1536 1534 1532 1531 1529 1528 1527 1526 1525 1524 1523 1523 1523 1522 1522 1522 1523 1524 1525 1526 1527 1529 1530 1532 1533 1534 1535
1585 1581 1578 1575 1571 1568 1565 1561 1558 1555 1552 1548 1545 1543 1540 1537 1535 1532 1530 1527 1525 1524 1523 1522 1521 1521 1520 1520 1519 1519 1519 1519 1520 1521 1521 1522 1523 1526 1527 1529 1530 1531 1533
1585 1582 1579 1575 1572 1569 1565 1562 1558 1555 1551 1547 1544 1541 1538 1535 1532 1530 1527 1525 1523 1521 1520 1518 1517 1517 1516 1516 1515 1515 1515 1516 1517 1517 1518 1518 1519 1522 1523 1525 1527 1528 1530
1587 1584 1580 1576 1573 1569 1565 1562 1558 1554 1550 1546 1543 1539 1536 1533 1530 1527 1525 1522 1520 1518 1516 1515 1514 1513 1512 1512 1512 1511 1512 1513 1513 1514 1514 1514 1516 1517 1519 1521 1523 1525 1526
1590 1586 1582 1578 1574 1570 1565 1561 1557 1553 1549 1545 1541 1537 1534 1531 1527 1524 1521 1519 1517 1515 1513 1511 1510 1509 1509 1508 1508 1508 1508 1508 1508 1509 1509 1509 1511 1513 1514 1516 1518 1521 1522
1592 1587 1583 1578 1574 1569 1565 1561 1556 1552 1547 1543 1539 1535 1531 1527 1524 1521 1518 1515 1512 1511 1509 1507 1506 1505 1504 1503 1503 1503 1504 1503 1504 1504 1504 1503 1505 1507 1509 1511 1513 1516 1518
1592 1587 1583 1578 1573 1568 1563 1559 1554 1550 1545 1541 1536 1532 1527 1523 1520 1517 1514 1511 1508 1506 1504 1503 1502 1500 1499 1499 1498 1498 1498 1499 1499 1499 1499 1497 1499 1501 1503 1505 1507 1510 1513
1592 1587 1582 1577 1571 1566 1561 1556 1551 1547 1542 1538 1534 1530 1525 1521 1516 1512 1509 1506 1503 1501 1499 1497 1496 1495 1494 1494 1493 1493 1492 1493 1493 1493 1493 1493 1493 1494 1496 1498 1501 1504 1507
1592 1586 1580 1575 1569 1563 1558 1553 1548 1543 1539 1535 1531 1527 1522 1518 1513 1508 1504 1501 1497 1495 1493 1491 1490 1489 1488 1487 1487 1486 1486 1486 1487 1487 1488 1487 1488 1488 1490 1492 1494 1498 1501
1591 1585 1579 1573 1567 1561 1555 1550 1545 1540 1535 1531 1527 1522 1518 1514 1509 1505 1501 1497 1492 1489 1487 1485 1483 1482 1481 1481 1480 1480 1479 1479 1480 1481 1481 1481 1481 1482 1484 1486 1488 1491 1494
1591 1585 1578 1572 1565 1559 1553 1547 1542 1537 1532 1528 1524 1519 1513 1509 1505 1501 1497 1493 1488 1484 1481 1479 1477 1475 1474 1473 1473 1473 1473 1473 1473 1473 1474 1474 1475 1476 1478 1480 1482 1484 1487
1590 1584 1577 1570 1564 1557 1551 1544 1539 1534 1529 1525 1521 1516 1511 1506 1501 1497 1492 1488 1484 1480 1476 1473 1470 1468 1467 1466 1465 1465 1465 1465 1465 1466 1466 1468 1468 1469 1471 1474 1476 1478 1480
1589 1582 1576 1569 1562 1555 1548 1541 1535 1530 1525 1520 1516 1512 1508 1503 1498 1493 1488 1484 1480 1476 1471 1468 1464 1461 1460 1460 1459 1457 1457 1457 1457 1458 1459 1460 1462 1463 1464 1466 1470 1472 1474
1588 1581 1575 1568 1561 1555 1548 1542 1535 1529 1523 1518 1513 1508 1504 1500 1495 1491 1486 1480 1476 1471 1467 1463 1459 1456 1454 1455 1455 1452 1451 1450 1449 1450 1451 1452 1454 1456 1457 1459 1462 1465 1468
1586 1580 1573 1566 1559 1553 1546 1539 1533 1527 1521 1515 1509 1504 1500 1496 1492 1487 1483 1478 1472 1468 1463 1459 1455 1452 1448 1448 1450 1450 1448 1443 1443 1443 1443 1444 1446 1448 1450 1452 1454 1458 1461
1585 1579 1572 1565 1558 1551 1544 1537 1531 1525 1520 1514 1509 1503 1497 1492 1487 1483 1478 1474 1468 1464 1459 1455 1452 1448 1444 1441 1441 1442 1443 1442 1441 1437 1437 1437 1438 1440 1443 1444 1447 1450 1453
1584 1577 1570 1563 1557 1550 1543 1536 1530 1524 1519 1513 1507 1501 1494 1488 1483 1478 1473 1468 1463 1459 1454 1450 1447 1443 1440 1436 1434 1433 1433 1433 1434 1434 1432 1433 1433 1433 1435 1437 1439 1442 1445
1582 1575 1568 1561 1555 1548 1541 1534 1528 1522 1516 1510 1504 1497 1490 1484 1478 1473 1468 1463 1458 1454 1450 1445 1441 1437 1434 1430 1427 1425 1426 1426 1427 1427 1427 1427 1427 1428 1429 1430 1432 1434 1437